Printer-friendly version

IAU Minor Planet Center

Minor Planet Center

MPEC 2006-B60 : 2006 BX26

The following Minor Planet Electronic Circular may be linked-to from your own Web pages, but must not otherwise be redistributed electronically.


Read MPEC 2006-B59 Read MPEC 2006-B61


M.P.E.C. 2006-B60                                Issued 2006 Jan. 26, 12:04 UT

     The Minor Planet Electronic Circulars contain information on unusual
         minor planets and routine data on comets.  They are published
   on behalf of Commission 20 of the International Astronomical Union by the
          Minor Planet Center, Smithsonian Astrophysical Observatory,
                          Cambridge, MA 02138, U.S.A.

                  Supported in part by the Brinson Foundation
                  Supported in part by the TABASGO Foundation
             Prepared using the Tamkin Foundation Computer Network

                              MPC@CFA.HARVARD.EDU
          URL http://cfa-www.harvard.edu/iau/mpc.html  ISSN 1523-6714

                                   2006 BX26

Observations:
     K06B26X* C2006 01 25.17772 08 41 52.53 +20 23 53.2          20.9 V EB060691
     K06B26X  C2006 01 25.19500 08 41 53.48 +20 24 21.0          21.4 V EB060691
     K06B26X  C2006 01 25.21222 08 41 54.39 +20 24 48.3          21.1 V EB060691
     K06B26X  C2006 01 25.37466 08 42 02.48 +20 28 59.7                 EB060291
     K06B26X  C2006 01 25.37884 08 42 02.71 +20 29 06.6                 EB060291
     K06B26X  C2006 01 25.38275 08 42 02.90 +20 29 11.9                 EB060291
     K06B26X  C2006 01 26.02036 08 42 43.10 +20 45 11.0                 EB060J95
     K06B26X  C2006 01 26.03005 08 42 43.62 +20 45 25.7                 EB060J95
     K06B26X  C2006 01 26.04885 08 42 44.56 +20 45 55.0          21.3 R EB060J95
     K06B26X  C2006 01 26.44059 08 43 07.29 +20 55 47.4          21.2 V EB060291
     K06B26X  C2006 01 26.44469 08 43 07.49 +20 55 53.2          21.5 V EB060291
     K06B26X  C2006 01 26.44895 08 43 07.71 +20 55 59.6          21.3 V EB060291

Observer details:
291 LPL/Spacewatch II.  Observers T. H. Bressi, M. Read, M. T. Read.  1.8-m
    f/2.7 reflector + CCD.
691 Steward Observatory, Kitt Peak.  Observers T. H. Bressi, M. T. Read.
    0.9-m f/3 reflector + CCD.
J95 Great Shefford.  Observer P. Birtwhistle.  0.40-m f/6.0 Schmidt-Cassegrain
    + CCD.

Orbital elements:
2006 BX26                                                Earth MOID = 0.1822 AU
Epoch 2006 Mar. 6.0 TT = JDT 2453800.5                  MPC
M  23.45906              (2000.0)            P               Q
n   0.29667680     Peri.  327.10096     +0.01260142     -0.99486355
a   2.2264537      Node   121.99126     +0.94109511     -0.02214388
e   0.4823091      Incl.    6.80108     +0.33790707     +0.09877329
P   3.32           H   23.6           G   0.15           U   8
Residuals in seconds of arc
060125 691  0.1+  0.2+    060125 291  0.0   0.1-    060126 J95  0.2-  0.9+
060125 691  0.2+  0.4+    060125 291  0.1-  0.7-    060126 291  0.1+  0.2-
060125 691  0.1+  0.3+    060126 J95  0.1-  0.4-    060126 291  0.0   0.3-
060125 291  0.4-  0.6-    060126 J95  0.2+  0.3-    060126 291  0.0   0.0

Ephemeris:
2006 BX26                a,e,i = 2.21, 0.48, 7                   q = 1.1546
Date    TT    R. A. (2000) Decl.     Delta      r     Elong.  Phase     V
2006 01 25    08 41.66   +20 19.5    0.246    1.230   176.7     2.7    21.3
2006 01 26    08 42.70   +20 45.0    0.249    1.233   177.0     2.4    21.3
2006 01 27    08 43.70   +21 09.6    0.253    1.237   176.9     2.4    21.3
2006 01 28    08 44.68   +21 33.5    0.257    1.241   176.6     2.7    21.4
2006 01 29    08 45.63   +21 56.5    0.261    1.245   176.1     3.1    21.5
2006 01 30    08 46.56   +22 18.6    0.265    1.249   175.4     3.6    21.5
2006 01 31    08 47.46   +22 39.9    0.269    1.253   174.7     4.2    21.6
2006 02 01    08 48.35   +23 00.4    0.273    1.257   173.8     4.8    21.7
2006 02 02    08 49.21   +23 19.9    0.278    1.262   173.0     5.5    21.8
2006 02 03    08 50.07   +23 38.6    0.282    1.266   172.1     6.1    21.8
2006 02 04    08 50.91   +23 56.5    0.287    1.270   171.2     6.8    21.9
2006 02 05    08 51.73   +24 13.5    0.292    1.275   170.3     7.5    22.0
2006 02 06    08 52.55   +24 29.6    0.297    1.279   169.5     8.1    22.1
2006 02 07    08 53.36   +24 44.9    0.302    1.284   168.6     8.8    22.1
2006 02 08    08 54.16   +24 59.3    0.307    1.288   167.7     9.4    22.2
2006 02 09    08 54.96   +25 13.0    0.313    1.293   166.8    10.0    22.3
2006 02 10    08 55.75   +25 25.8    0.318    1.297   165.9    10.7    22.4
2006 02 11    08 56.54   +25 37.8    0.324    1.302   165.0    11.3    22.4
2006 02 12    08 57.33   +25 49.1    0.329    1.307   164.2    11.9    22.5
2006 02 13    08 58.12   +25 59.6    0.335    1.312   163.3    12.5    22.6
2006 02 14    08 58.90   +26 09.4    0.341    1.317   162.4    13.1    22.6

Timothy B. Spahr             (C) Copyright 2006 MPC           M.P.E.C. 2006-B60

Read MPEC 2006-B59 Read MPEC 2006-B61


Our Web policy. Index to the CBAT/MPC/ICQ pages.


Valid HTML 4.01!